This demonstration page uses our WeatherBlox Daily Observations layout. Learn more.

Left ArrowRight Arrow

Hourly Observations for May 13, 2022

Temp ( °F °C ) Dew Point ( °F °C ) Humidity (%) Winds ( mph kmh ) Pressure ( in mb ) Visibility ( mi km ) Precip ( " mm )
12:15 am 00:15 undefined 67 19.7 48 9.1 51 51 Calm 30.04 1017 10 16 0.00 0.00
12:35 am 00:35 undefined 66 18.9 49 9.2 54 54 Calm 30.04 1017 10 16 0.00 0.00
12:55 am 00:55 undefined 66 18.7 48 8.8 53 53 Calm 30.05 1018 10 16 0.00 0.00
1:15 am 01:15 undefined 63 17.2 51 10.4 64 64 Calm 30.06 1018 10 16 0.00 0.00
1:35 am 01:35 undefined 62 16.5 52 10.9 70 70 Calm 30.06 1018 10 16 0.00 0.00
1:55 am 01:55 undefined 61 15.9 52 10.9 72 72 Calm 30.05 1018 10 16 0.00 0.00
2:15 am 02:15 undefined 60 15.7 53 11.4 76 76 Calm 30.05 1018 10 16 0.00 0.00
2:35 am 02:35 undefined 61 16.1 51 10.3 69 69 Calm 30.05 1018 10 16 0.00 0.00
2:55 am 02:55 undefined 60 15.3 51 10.8 75 75 Calm 30.05 1018 10 16 0.00 0.00
3:15 am 03:15 undefined 56 13.6 53 11.4 87 87 Calm 30.06 1018 10 16 0.00 0.00
3:35 am 03:35 undefined 58 14.5 51 10.7 78 78 Calm 30.06 1018 10 16 0.00 0.00
3:55 am 03:55 undefined 57 13.9 52 11.3 84 84 Calm 30.05 1018 10 16 0.00 0.00
4:15 am 04:15 undefined 56 13.6 52 11 84 84 Calm 30.05 1018 10 16 0.00 0.00
4:35 am 04:35 undefined 56 13.6 53 11.4 87 87 Calm 30.05 1018 10 16 0.00 0.00
4:55 am 04:55 undefined 56 13.3 52 11.2 87 87 Calm 30.04 1017 10 16 0.00 0.00
5:15 am 05:15 undefined 57 13.7 52 11 84 84 Calm 30.04 1017 10 16 0.00 0.00
5:35 am 05:35 undefined 55 13 51 10.6 85 85 Calm 30.05 1018 10 16 0.00 0.00
5:55 am 05:55 undefined 55 12.7 52 10.9 89 89 Calm 30.05 1018 10 16 0.00 0.00
6:15 am 06:15 undefined 55 13 51 10.7 86 86 Calm 30.05 1018 10 16 0.00 0.00
6:35 am 06:35 undefined 55 13 51 10.7 86 86 Calm 30.06 1018 10 16 0.00 0.00
6:55 am 06:55 undefined 55 13 51 10.7 86 86 Calm 30.06 1018 10 16 0.00 0.00
7:15 am 07:15 undefined 57 14 52 11.2 83 83 Calm 30.06 1018 10 16 0.00 0.00
7:35 am 07:35 undefined 60 15.7 55 12.5 81 81 Calm 30.05 1018 10 16 0.00 0.00
7:55 am 07:55 undefined 64 17.8 54 12 69 69 SE 5 7 30.05 1018 10 16 0.00 0.00
8:15 am 08:15 undefined 66 19 53 11.5 62 62 SE 8 13 30.05 1018 10 16 0.00 0.00
8:35 am 08:35 undefined 68 19.8 54 12.1 61 61 SSE 10 17 30.05 1018 10 16 0.00 0.00
8:55 am 08:55 undefined 69 20.6 55 12.5 60 60 SSE 8 13 30.04 1017 10 16 0.00 0.00
9:15 am 09:15 undefined 71 21.4 55 12.9 59 59 SSE 8 13 30.04 1017 10 16 0.00 0.00
9:35 am 09:35 undefined 72 22.2 56 13.1 56 56 SSE 9 15 30.04 1017 10 16 0.00 0.00
9:55 am 09:55 undefined 73 23 56 13.3 54 54 S 7 11 30.03 1017 10 16 0.00 0.00
10:15 am 10:15 undefined 75 23.8 56 13.5 53 53 S 8 13 30.01 1016 10 16 0.00 0.00
10:35 am 10:35 undefined 77 24.8 57 13.8 50 50 SSE 13 20 30.00 1016 10 16 0.00 0.00
10:55 am 10:55 undefined 77 25 56 13.6 49 49 SE 9 15 30.00 1016 10 16 0.00 0.00
11:15 am 11:15 undefined 78 25.5 57 13.9 49 49 SE 7 11 30.01 1016 10 16 0.00 0.00
11:35 am 11:35 undefined 79 26.1 57 14 47 47 SSE 7 11 30.02 1016 10 16 0.00 0.00
11:55 am 11:55 undefined 80 26.8 57 13.7 45 45 SSE 9 15 30.00 1016 10 16 0.00 0.00
12:15 pm 12:15 undefined 80 26.8 57 13.7 45 45 SSE 8 13 30.00 1016 10 16 0.00 0.00
12:35 pm 12:35 undefined 82 27.6 58 14.2 44 44 SE 7 11 30.01 1016 10 16 0.00 0.00
12:55 pm 12:55 undefined 82 27.7 57 13.9 43 43 SE 8 13 30.01 1016 10 16 0.00 0.00
1:15 pm 13:15 undefined 82 27.9 57 14.1 43 43 SSW 7 11 30.00 1016 10 16 0.00 0.00
1:35 pm 13:35 undefined 83 28.1 57 13.9 42 42 SE 7 11 30.00 1016 10 16 0.00 0.00
1:55 pm 13:55 undefined 83 28.4 56 13.6 40 40 SE 7 11 29.99 1016 10 16 0.00 0.00
2:15 pm 14:15 undefined 84 28.7 58 14.4 42 42 SSE 8 13 29.99 1016 10 16 0.00 0.00
2:35 pm 14:35 undefined 83 28.3 58 14.2 42 42 S 6 9 29.98 1015 10 16 0.00 0.00
2:55 pm 14:55 undefined 83 28.5 57 13.7 40 40 SSE 5 7 29.98 1015 10 16 0.00 0.00
3:15 pm 15:15 undefined 84 28.8 57 14.1 41 41 SSE 6 9 29.97 1015 10 16 0.00 0.00
3:35 pm 15:35 undefined 84 28.7 57 13.8 40 40 SE 6 9 29.96 1014 10 16 0.00 0.00
3:55 pm 15:55 undefined 84 29.1 56 13.4 38 38 SE 9 15 29.94 1014 10 16 0.00 0.00
4:15 pm 16:15 undefined 84 28.9 56 13.4 39 39 SSE 5 7 29.93 1013 10 16 0.00 0.00
4:35 pm 16:35 undefined 84 28.8 56 13.4 39 39 S 6 9 29.92 1013 10 16 0.00 0.00
4:55 pm 16:55 undefined 84 29.1 56 13.3 38 38 S 6 9 29.92 1013 10 16 0.00 0.00
5:15 pm 17:15 undefined 85 29.4 56 13.4 37 37 S 8 13 29.92 1013 10 16 0.00 0.00
5:35 pm 17:35 undefined 85 29.4 56 13.5 38 38 Calm 29.91 1013 10 16 0.00 0.00
5:55 pm 17:55 undefined 84 29.1 56 13.3 38 38 S 6 9 29.91 1013 10 16 0.00 0.00
6:15 pm 18:15 undefined 84 29.1 55 13 37 37 ESE 5 7 29.91 1013 10 16 0.00 0.00
6:35 pm 18:35 undefined 84 28.8 55 12.7 37 37 SE 3 6 29.91 1013 10 16 0.00 0.00
6:55 pm 18:55 undefined 84 28.7 56 13.1 38 38 ESE 7 11 29.90 1012 10 16 0.00 0.00
7:15 pm 19:15 undefined 83 28.2 56 13.2 40 40 SE 3 6 29.89 1012 10 16 0.00 0.00
7:35 pm 19:35 undefined 82 27.7 55 12.8 40 40 SE 5 7 29.89 1012 10 16 0.00 0.00
7:55 pm 19:55 undefined 80 26.7 56 13.3 44 44 SE 6 9 29.88 1012 10 16 0.00 0.00
8:15 pm 20:15 undefined 79 25.9 56 13.5 46 46 SE 7 11 29.88 1012 10 16 0.00 0.00
8:35 pm 20:35 undefined 78 25.5 56 13.1 46 46 SE 3 6 29.87 1011 10 16 0.00 0.00
8:55 pm 20:55 undefined 77 24.8 55 12.8 47 47 Calm 29.87 1012 10 16 0.00 0.00
9:15 pm 21:15 undefined 74 23.6 55 12.7 51 51 Calm 29.88 1012 10 16 0.00 0.00
9:35 pm 21:35 undefined 74 23.2 56 13.1 53 53 Calm 29.90 1012 10 16 0.00 0.00
9:55 pm 21:55 undefined 73 22.8 56 13.3 55 55 Calm 29.91 1013 10 16 0.00 0.00
10:15 pm 22:15 undefined 73 22.9 56 13.2 54 54 SE 7 11 29.92 1013 10 16 0.00 0.00
10:35 pm 22:35 undefined 73 23 56 13.4 55 55 Calm 29.93 1013 10 16 0.00 0.00
10:55 pm 22:55 undefined 73 22.9 56 13.6 56 56 SE 7 11 29.93 1013 10 16 0.00 0.00
11:15 pm 23:15 undefined 73 22.6 57 14 58 58 SE 9 15 29.93 1013 10 16 0.00 0.00
11:35 pm 23:35 undefined 72 22.1 57 14.1 61 61 SSW 5 7 29.94 1014 10 16 0.00 0.00
11:55 pm 23:55 undefined 69 20.6 58 14.3 67 67 WSW 5 7 29.96 1015 10 16 0.00 0.00

Powered by AerisWeather